Simultaneous Nadir Overpasses (SNOs) Predictions

Prediction of SNOs between METOP-B and TERRA Satellite Orbit:

Table of predicted SNOs for the next 14.0 days since TLE Epoch: 2/11/2017
Index Date (METOP-B) Time (METOP-B) Lat,Lon (METOP-B) SZA (METOP-B ) Date (TERRA) Time (TERRA) Lat,Lon (TERRA) SZA (TERRA ) Distance(km) Time Diff (sec)
1 02/11/2017 16:39:24 81.30, -23.00 97.37 02/11/2017 16:40:12 81.30, -23.09 97.38 1.47 48
2 02/11/2017 17:30:04 -81.30, 144.57 82.62 02/11/2017 17:29:39 -81.30, 144.49 82.65 1.63 25
3 02/14/2017 12:13:47 81.30, 43.31 96.42 02/14/2017 12:14:27 81.30, 43.33 96.43 0.32 40
4 02/14/2017 13:04:27 -81.30,-149.11 83.57 02/14/2017 13:03:54 -81.30,-149.07 83.59 1.01 33
5 02/17/2017 07:48:10 81.30, 109.60 95.44 02/17/2017 07:48:42 81.30, 109.76 95.47 2.72 32
6 02/
